View from above orbital plane
|
View from above satellite
|
Ground track
|
The orbit data is extracted from the following two-line orbital elements,
1 115U 60002D 19349.71591143 -.00000105 00000-0 14719-4 0 9995
2 115 48.1671 82.5136 0034539 156.0450 204.2078 14.83517493185547
Epoch (UTC): | 15 December 2019 17:10:54 |
Eccentricity: | 0.0034539 |
inclination: | 48.1671° |
perigee height: | 594 km |
apogee height: | 642 km |
right ascension of ascending node: | 82.5136° |
argument of perigee: | 156.0450° |
revolutions per day: | 14.83517493 |
mean anomaly at epoch: | 204.2078° |
orbit number at epoch: | 18554 |
The dashed part of the orbit path shows where the satellite is in the earth's shadow,
|
|